OMD206 KLAX-KMZJ

Flight info

Callsign OMD206
Flight time 1h 0m
Altitude 39000
Route DOTSS2 CNERY BLH J169 TFD
Aircraft A320/M-SDE3FGHIRWY/LB1

Departure

Time 2026-05-08 20:58
Airport Los Angeles International Airport (KLAX)

Arrival

Time 2026-05-08 21:58
Airport Pinal Airpark (KMZJ)
Time Latitude Longitude Altitude Speed Heading
2026-05-08 20:28 33.94246 -118.43332 94 ft 0 kts 76°
2026-05-08 20:42 33.94243 -118.43344 93 ft 3 kts 74°
2026-05-08 20:42 33.94238 -118.43367 93 ft 3 kts 74°
2026-05-08 20:42 33.94229 -118.43392 92 ft 3 kts 50°
2026-05-08 20:43 33.94213 -118.43407 92 ft 3 kts
2026-05-08 20:43 33.94194 -118.43399 92 ft 3 kts 330°
2026-05-08 20:43 33.94186 -118.43394 92 ft 0 kts 330°
2026-05-08 20:47 33.94202 -118.43404 93 ft 9 kts 351°
2026-05-08 20:47 33.94147 -118.43320 93 ft 13 kts 108°
2026-05-08 20:47 33.94158 -118.43243 94 ft 13 kts 83°
2026-05-08 20:48 33.94172 -118.43109 94 ft 19 kts 83°
2026-05-08 20:48 33.94190 -118.42940 93 ft 22 kts 83°
2026-05-08 20:48 33.94205 -118.42791 93 ft 13 kts 83°
2026-05-08 20:48 33.94165 -118.42705 93 ft 15 kts 169°
2026-05-08 20:49 33.94041 -118.42691 93 ft 20 kts 175°
2026-05-08 20:49 33.93898 -118.42667 94 ft 20 kts 173°
2026-05-08 20:49 33.93758 -118.42647 93 ft 16 kts 172°
2026-05-08 20:49 33.93646 -118.42632 95 ft 15 kts 171°
2026-05-08 20:50 33.93621 -118.42517 93 ft 18 kts 83°
2026-05-08 20:50 33.93638 -118.42351 95 ft 22 kts 82°
2026-05-08 20:50 33.93660 -118.42149 94 ft 26 kts 83°
2026-05-08 20:50 33.93681 -118.41936 96 ft 26 kts 83°
2026-05-08 20:51 33.93697 -118.41789 98 ft 29 kts 83°
2026-05-08 20:51 33.93722 -118.41548 95 ft 27 kts 83°
2026-05-08 20:51 33.93744 -118.41331 97 ft 28 kts 83°
2026-05-08 20:51 33.93765 -118.41115 94 ft 23 kts 82°
2026-05-08 20:52 33.93787 -118.40903 94 ft 28 kts 83°
2026-05-08 20:52 33.93809 -118.40686 94 ft 27 kts 83°
2026-05-08 20:52 33.93833 -118.40446 95 ft 29 kts 83°
2026-05-08 20:52 33.93856 -118.40210 96 ft 21 kts 84°
2026-05-08 20:53 33.93874 -118.40050 97 ft 21 kts 83°
2026-05-08 20:53 33.93895 -118.39855 96 ft 26 kts 82°
2026-05-08 20:53 33.93916 -118.39628 95 ft 29 kts 82°
2026-05-08 20:53 33.93938 -118.39426 96 ft 24 kts 83°
2026-05-08 20:54 33.93945 -118.39354 95 ft 26 kts 83°
2026-05-08 20:54 33.93956 -118.39252 94 ft 29 kts 83°
2026-05-08 20:54 33.93976 -118.39057 94 ft 23 kts 83°
2026-05-08 20:54 33.93997 -118.38851 94 ft 26 kts 83°
2026-05-08 20:55 33.94016 -118.38651 96 ft 24 kts 82°
2026-05-08 20:55 33.94029 -118.38531 96 ft 5 kts 83°
2026-05-08 20:55 33.94036 -118.38466 97 ft 10 kts 83°
2026-05-08 20:55 33.94046 -118.38362 96 ft 15 kts 83°
2026-05-08 20:56 33.94061 -118.38220 95 ft 20 kts 82°
2026-05-08 20:56 33.94076 -118.38081 93 ft 16 kts 84°
2026-05-08 20:56 33.94041 -118.37995 93 ft 13 kts 167°
2026-05-08 20:56 33.93987 -118.38013 93 ft 0 kts 238°
2026-05-08 20:57 33.93983 -118.38035 94 ft 4 kts 260°
2026-05-08 20:57 33.93977 -118.38086 94 ft 7 kts 262°
2026-05-08 20:57 33.93969 -118.38160 95 ft 13 kts 263°
2026-05-08 20:57 33.93925 -118.38580 99 ft 93 kts 262°
2026-05-08 20:58 33.93817 -118.39627 209 ft 148 kts 263°
2026-05-08 20:58 33.93715 -118.40834 889 ft 163 kts 265°
2026-05-08 20:58 33.93624 -118.42242 1744 ft 172 kts 264°
2026-05-08 20:58 33.93487 -118.43710 2439 ft 186 kts 263°
2026-05-08 20:59 33.93283 -118.45351 2931 ft 214 kts 257°
2026-05-08 20:59 33.92468 -118.47067 3320 ft 256 kts 231°
2026-05-08 20:59 33.91294 -118.48744 4290 ft 268 kts 233°
2026-05-08 20:59 33.90092 -118.50495 5042 ft 272 kts 232°
2026-05-08 21:00 33.88867 -118.52241 6266 ft 274 kts 232°
2026-05-08 21:00 33.87567 -118.53942 7407 ft 279 kts 223°
2026-05-08 21:00 33.85892 -118.55172 8501 ft 287 kts 203°
2026-05-08 21:00 33.83927 -118.55685 9619 ft 292 kts 183°
2026-05-08 21:01 33.81878 -118.55413 10481 ft 307 kts 169°
2026-05-08 21:01 33.79709 -118.54849 10896 ft 331 kts 168°
2026-05-08 21:01 33.77376 -118.54206 11245 ft 356 kts 167°
2026-05-08 21:01 33.74914 -118.53374 11516 ft 380 kts 159°
2026-05-08 21:02 33.72522 -118.51899 12077 ft 393 kts 147°
2026-05-08 21:02 33.70379 -118.49820 12823 ft 400 kts 135°
2026-05-08 21:02 33.68620 -118.47212 13618 ft 405 kts 122°
2026-05-08 21:02 33.67380 -118.44210 14336 ft 410 kts 110°
2026-05-08 21:03 33.66410 -118.40923 15065 ft 414 kts 109°
2026-05-08 21:03 33.65464 -118.37696 15786 ft 418 kts 109°
2026-05-08 21:03 33.64725 -118.34308 16513 ft 422 kts 99°
2026-05-08 21:03 33.64463 -118.30795 17234 ft 425 kts 90°
2026-05-08 21:04 33.64470 -118.27259 17955 ft 429 kts 89°
2026-05-08 21:04 33.64478 -118.23650 18640 ft 433 kts 90°
2026-05-08 21:04 33.64479 -118.20276 19231 ft 437 kts 90°
2026-05-08 21:04 33.64477 -118.16602 19875 ft 442 kts 90°
2026-05-08 21:05 33.64470 -118.12855 20523 ft 446 kts 90°
2026-05-08 21:05 33.64463 -118.09115 21109 ft 450 kts 90°
2026-05-08 21:05 33.64457 -118.05384 21675 ft 454 kts 90°
2026-05-08 21:05 33.64454 -118.01576 22208 ft 459 kts 90°
2026-05-08 21:06 33.64452 -117.97730 22731 ft 463 kts 90°
2026-05-08 21:06 33.64450 -117.93797 23276 ft 466 kts 90°
2026-05-08 21:06 33.64445 -117.89895 23765 ft 470 kts 90°
2026-05-08 21:06 33.64436 -117.85956 24215 ft 473 kts 90°
2026-05-08 21:07 33.64393 -117.81993 24647 ft 477 kts 93°
2026-05-08 21:07 33.63965 -117.78042 25089 ft 480 kts 102°
2026-05-08 21:07 33.63095 -117.74163 25548 ft 483 kts 106°
2026-05-08 21:07 33.62137 -117.70289 26000 ft 486 kts 106°
2026-05-08 21:08 33.61175 -117.66386 26437 ft 490 kts 106°
2026-05-08 21:08 33.60204 -117.62454 26884 ft 493 kts 106°
2026-05-08 21:08 33.59229 -117.58512 27499 ft 491 kts 106°
2026-05-08 21:08 33.58259 -117.54596 28234 ft 489 kts 106°
2026-05-08 21:09 33.57294 -117.50697 28912 ft 488 kts 106°
2026-05-08 21:09 33.56328 -117.46803 29581 ft 487 kts 106°
2026-05-08 21:09 33.55361 -117.42906 30259 ft 486 kts 106°
2026-05-08 21:09 33.54397 -117.39025 30861 ft 484 kts 106°
2026-05-08 21:10 33.53437 -117.35159 31513 ft 482 kts 106°
2026-05-08 21:10 33.52479 -117.31319 32115 ft 481 kts 107°
2026-05-08 21:10 33.51517 -117.27471 32648 ft 482 kts 107°
2026-05-08 21:10 33.50738 -117.23571 33249 ft 481 kts 99°
2026-05-08 21:11 33.50436 -117.19592 33877 ft 479 kts 90°
2026-05-08 21:11 33.50391 -117.15605 34433 ft 478 kts 90°
2026-05-08 21:11 33.50342 -117.11623 35003 ft 477 kts 90°
2026-05-08 21:11 33.50289 -117.07654 35607 ft 475 kts 90°
2026-05-08 21:12 33.50233 -117.03714 36185 ft 473 kts 90°
2026-05-08 21:12 33.50175 -116.99786 36764 ft 471 kts 90°
2026-05-08 21:12 33.50114 -116.95859 37321 ft 470 kts 90°
2026-05-08 21:12 33.50056 -116.91958 37864 ft 468 kts 89°
2026-05-08 21:13 33.50000 -116.88061 38400 ft 467 kts 89°
2026-05-08 21:13 33.49943 -116.84170 38830 ft 468 kts 89°
2026-05-08 21:13 33.49881 -116.80269 38960 ft 469 kts 89°
2026-05-08 21:14 33.49752 -116.72443 38968 ft 469 kts 89°
2026-05-08 21:14 33.49643 -116.65939 38964 ft 470 kts 89°
2026-05-08 21:15 33.49503 -116.58126 38932 ft 469 kts 89°
2026-05-08 21:15 33.49363 -116.50321 38916 ft 468 kts 90°
2026-05-08 21:16 33.49218 -116.42534 38918 ft 467 kts 90°
2026-05-08 21:16 33.49087 -116.34743 38906 ft 467 kts 89°
2026-05-08 21:17 33.48981 -116.26951 38909 ft 468 kts 89°
2026-05-08 21:17 33.48871 -116.19156 38866 ft 468 kts 90°
2026-05-08 21:18 33.48749 -116.11363 38860 ft 468 kts 90°
2026-05-08 21:18 33.48944 -116.03598 38864 ft 466 kts 79°
2026-05-08 21:19 33.50730 -115.96189 38862 ft 463 kts 69°
2026-05-08 21:19 33.52873 -115.88911 38867 ft 463 kts 69°
2026-05-08 21:20 33.54986 -115.81664 38870 ft 464 kts 69°
2026-05-08 21:20 33.57121 -115.74312 38875 ft 464 kts 69°
2026-05-08 21:21 33.59227 -115.67047 38874 ft 464 kts 69°
2026-05-08 21:21 33.61279 -115.59714 38879 ft 465 kts 75°
2026-05-08 21:21 33.61708 -115.55858 38875 ft 468 kts 88°
2026-05-08 21:22 33.61641 -115.51951 38876 ft 469 kts 90°
2026-05-08 21:22 33.61442 -115.44138 38874 ft 469 kts 90°
2026-05-08 21:23 33.61247 -115.36298 38867 ft 470 kts 90°
2026-05-08 21:23 33.61059 -115.28463 38876 ft 470 kts 90°
2026-05-08 21:24 33.60855 -115.20624 38873 ft 470 kts 91°
2026-05-08 21:24 33.60642 -115.12787 38871 ft 470 kts 91°
2026-05-08 21:25 33.60430 -115.04947 38872 ft 470 kts 91°
2026-05-08 21:25 33.60212 -114.97104 38875 ft 470 kts 91°
2026-05-08 21:26 33.59993 -114.89274 38881 ft 469 kts 91°
2026-05-08 21:26 33.59769 -114.81448 38885 ft 469 kts 91°
2026-05-08 21:27 33.59491 -114.73627 38885 ft 470 kts 93°
2026-05-08 21:27 33.58852 -114.65830 38886 ft 470 kts 96°
2026-05-08 21:28 33.58036 -114.58042 38888 ft 470 kts 96°
2026-05-08 21:28 33.57274 -114.50250 38885 ft 470 kts 95°
2026-05-08 21:29 33.56579 -114.42453 38881 ft 470 kts 95°
2026-05-08 21:29 33.55894 -114.34659 38878 ft 470 kts 95°
2026-05-08 21:30 33.55188 -114.26859 38879 ft 470 kts 95°
2026-05-08 21:30 33.54462 -114.19065 38885 ft 471 kts 96°
2026-05-08 21:31 33.53729 -114.11260 38890 ft 471 kts 96°
2026-05-08 21:31 33.52994 -114.03453 38896 ft 471 kts 95°
2026-05-08 21:32 33.52261 -113.95651 38904 ft 471 kts 95°
2026-05-08 21:32 33.51528 -113.87892 38919 ft 472 kts 95°
2026-05-08 21:33 33.50778 -113.80082 38934 ft 472 kts 96°
2026-05-08 21:33 33.50025 -113.72275 38958 ft 472 kts 95°
2026-05-08 21:34 33.49272 -113.64463 38965 ft 472 kts 95°
2026-05-08 21:34 33.48514 -113.56649 38968 ft 471 kts 96°
2026-05-08 21:35 33.47748 -113.48854 38955 ft 471 kts 96°
2026-05-08 21:35 33.46967 -113.41060 38879 ft 471 kts 96°
2026-05-08 21:36 33.45648 -113.33382 38864 ft 473 kts 109°
2026-05-08 21:36 33.42943 -113.26209 38871 ft 473 kts 115°
2026-05-08 21:37 33.40132 -113.19089 38867 ft 473 kts 115°
2026-05-08 21:37 33.38730 -113.15532 38703 ft 473 kts 115°
2026-05-08 21:37 33.37325 -113.11970 38140 ft 473 kts 115°
2026-05-08 21:37 33.35920 -113.08411 37509 ft 473 kts 115°
2026-05-08 21:38 33.34528 -113.04896 36912 ft 473 kts 115°
2026-05-08 21:38 33.33115 -113.01336 36324 ft 475 kts 115°
2026-05-08 21:38 33.31699 -112.97765 35744 ft 476 kts 115°
2026-05-08 21:38 33.30282 -112.94194 35181 ft 477 kts 115°
2026-05-08 21:39 33.28854 -112.90606 34622 ft 478 kts 115°
2026-05-08 21:39 33.27420 -112.87009 34080 ft 480 kts 115°
2026-05-08 21:39 33.25979 -112.83402 33496 ft 482 kts 115°
2026-05-08 21:39 33.24531 -112.79783 32891 ft 483 kts 115°
2026-05-08 21:40 33.23088 -112.76171 32308 ft 485 kts 115°
2026-05-08 21:40 33.21643 -112.72555 31728 ft 485 kts 115°
2026-05-08 21:40 33.20187 -112.68911 31159 ft 487 kts 114°
2026-05-08 21:41 33.17263 -112.61591 30045 ft 488 kts 115°
2026-05-08 21:41 33.15800 -112.57944 29422 ft 488 kts 115°
2026-05-08 21:41 33.14326 -112.54282 28797 ft 491 kts 115°
2026-05-08 21:41 33.12844 -112.50599 28179 ft 493 kts 114°
2026-05-08 21:42 33.11361 -112.46915 27582 ft 493 kts 115°
2026-05-08 21:42 33.09873 -112.43221 27010 ft 495 kts 114°
2026-05-08 21:42 33.08379 -112.39515 26430 ft 498 kts 114°
2026-05-08 21:42 33.06870 -112.35787 25865 ft 498 kts 115°
2026-05-08 21:43 33.05361 -112.32067 25317 ft 499 kts 115°
2026-05-08 21:43 33.03850 -112.28346 24776 ft 498 kts 115°
2026-05-08 21:43 33.02339 -112.24627 24249 ft 499 kts 114°
2026-05-08 21:43 33.00837 -112.20930 23731 ft 493 kts 115°
2026-05-08 21:44 32.99344 -112.17256 23176 ft 490 kts 115°
2026-05-08 21:44 32.97871 -112.13624 22570 ft 484 kts 115°
2026-05-08 21:44 32.96412 -112.10036 21974 ft 480 kts 114°
2026-05-08 21:44 32.94960 -112.06473 21396 ft 475 kts 114°
2026-05-08 21:45 32.93524 -112.02955 20829 ft 470 kts 114°
2026-05-08 21:45 32.92099 -111.99468 20268 ft 466 kts 114°
2026-05-08 21:45 32.90688 -111.96017 19715 ft 462 kts 114°
2026-05-08 21:45 32.89289 -111.92595 19171 ft 457 kts 114°
2026-05-08 21:46 32.87906 -111.89215 18645 ft 453 kts 113°
2026-05-08 21:46 32.86515 -111.85860 18115 ft 450 kts 115°
2026-05-08 21:46 32.84984 -111.82639 17368 ft 445 kts 117°
2026-05-08 21:46 32.83463 -111.79501 16583 ft 440 kts 117°
2026-05-08 21:47 32.81940 -111.76314 15698 ft 435 kts 117°
2026-05-08 21:47 32.80455 -111.73176 14835 ft 432 kts 117°
2026-05-08 21:47 32.79012 -111.70079 13920 ft 426 kts 117°
2026-05-08 21:47 32.77621 -111.67049 12965 ft 420 kts 117°
2026-05-08 21:48 32.76239 -111.64006 11985 ft 416 kts 117°
2026-05-08 21:48 32.74861 -111.61004 11036 ft 411 kts 117°
2026-05-08 21:48 32.73505 -111.58041 10181 ft 406 kts 117°
2026-05-08 21:48 32.72191 -111.55222 10045 ft 368 kts 117°
2026-05-08 21:49 32.71004 -111.52708 10051 ft 329 kts 117°
2026-05-08 21:49 32.69992 -111.50403 9942 ft 308 kts 115°
2026-05-08 21:49 32.69016 -111.48136 9130 ft 308 kts 115°
2026-05-08 21:49 32.68040 -111.45876 8294 ft 308 kts 115°
2026-05-08 21:50 32.67075 -111.43621 7640 ft 303 kts 117°
2026-05-08 21:50 32.65982 -111.41512 7037 ft 298 kts 123°
2026-05-08 21:50 32.64849 -111.39474 6434 ft 294 kts 123°
2026-05-08 21:50 32.63683 -111.37499 5815 ft 290 kts 128°
2026-05-08 21:51 32.62436 -111.35643 5192 ft 287 kts 129°
2026-05-08 21:51 32.61186 -111.33802 4579 ft 286 kts 129°
2026-05-08 21:51 32.59947 -111.31972 4066 ft 281 kts 129°
2026-05-08 21:51 32.58755 -111.30231 3921 ft 263 kts 129°
2026-05-08 21:52 32.57599 -111.28581 3914 ft 255 kts 129°
2026-05-08 21:52 32.56492 -111.27033 3909 ft 241 kts 129°
2026-05-08 21:52 32.55458 -111.25566 3841 ft 223 kts 129°
2026-05-08 21:52 32.54510 -111.24172 3783 ft 213 kts 129°
2026-05-08 21:53 32.53579 -111.22821 3733 ft 208 kts 129°
2026-05-08 21:53 32.52670 -111.21535 3682 ft 201 kts 130°
2026-05-08 21:53 32.51568 -111.20580 3606 ft 201 kts 160°
2026-05-08 21:53 32.50313 -111.20393 3576 ft 163 kts 191°
2026-05-08 21:54 32.49319 -111.20796 3564 ft 143 kts 218°
2026-05-08 21:54 32.48566 -111.21499 3579 ft 135 kts 227°
2026-05-08 21:54 32.47852 -111.22218 3454 ft 133 kts 225°
2026-05-08 21:54 32.47183 -111.22952 3236 ft 130 kts 232°
2026-05-08 21:55 32.46537 -111.23700 3093 ft 130 kts 230°
2026-05-08 21:55 32.46089 -111.24567 3001 ft 120 kts 266°
2026-05-08 21:55 32.46134 -111.25216 2984 ft 117 kts 289°
2026-05-08 21:56 32.46840 -111.26986 2911 ft 123 kts 302°
2026-05-08 21:56 32.47447 -111.28116 2748 ft 123 kts 304°
2026-05-08 21:56 32.47937 -111.28962 2576 ft 125 kts 308°
2026-05-08 21:56 32.48529 -111.29707 2388 ft 123 kts 319°
2026-05-08 21:57 32.49152 -111.30390 2203 ft 123 kts 315°
2026-05-08 21:57 32.49566 -111.30861 2151 ft 121 kts 315°
2026-05-08 21:57 32.50154 -111.31566 1959 ft 120 kts 316°
2026-05-08 21:57 32.50715 -111.32218 1895 ft 96 kts 315°
2026-05-08 21:58 32.51080 -111.32649 1885 ft 60 kts 315°
2026-05-08 21:58 32.51338 -111.32954 1887 ft 43 kts 315°
2026-05-08 21:58 32.51547 -111.33198 1881 ft 38 kts 315°
2026-05-08 21:58 32.51676 -111.33286 1883 ft 20 kts 359°
2026-05-08 21:59 32.51737 -111.33213 1883 ft 15 kts 97°
2026-05-08 21:59 32.51671 -111.33110 1886 ft 17 kts 134°
2026-05-08 21:59 32.51578 -111.33000 1888 ft 20 kts 135°
2026-05-08 21:59 32.51474 -111.32876 1890 ft 22 kts 135°
2026-05-08 22:00 32.51352 -111.32733 1892 ft 27 kts 135°
2026-05-08 22:00 32.51213 -111.32566 1892 ft 31 kts 134°
2026-05-08 22:00 32.51064 -111.32385 1889 ft 30 kts 134°
2026-05-08 22:00 32.50912 -111.32204 1896 ft 32 kts 133°
2026-05-08 22:01 32.50767 -111.32030 1891 ft 23 kts 135°
2026-05-08 22:01 32.50676 -111.31924 1898 ft 16 kts 134°
2026-05-08 22:01 32.50605 -111.31832 1904 ft 11 kts 110°
2026-05-08 22:01 32.50652 -111.31766 1898 ft 10 kts 44°
2026-05-08 22:02 32.50670 -111.31745 1901 ft 0 kts 45°